Location: Caltech
(34.1382°N, 118.1253°W)
Time: 19:49:29
(UTC-08:00)

Hamsat - Visible Passes

Search period start: 23 November 2014 00:00
Search period end: 03 December 2014 00:00
Orbit: 592 x 627 km, 97.6° (Epoch: 23 November)

Date Brightness Start Highest point End Pass type
(mag) Time Alt. Az. Time Alt. Az. Time Alt. Az.
23 Nov ? 04:31:38 10° ENE 04:33:53 14° E 04:36:07 10° SE visible
23 Nov ? 06:05:52 10° N 06:09:56 40° WNW 06:14:00 10° SW visible
24 Nov ? 04:44:50 10° NE 04:48:04 20° E 04:51:18 10° SE visible
24 Nov ? 17:09:00 10° S 17:13:07 62° W 17:17:18 10° NNW visible
25 Nov ? 04:58:25 10° NE 05:02:14 29° E 05:06:02 10° SSE visible
25 Nov ? 17:23:17 10° S 17:27:13 40° W 17:31:13 10° NNW visible
26 Nov ? 05:12:12 10° NNE 05:16:21 44° E 05:20:30 10° S visible
26 Nov ? 17:37:47 10° SSW 17:41:21 27° W 17:44:58 10° NW visible
27 Nov ? 05:26:07 10° NNE 05:30:27 66° E 05:34:46 10° S visible
27 Nov ? 17:52:33 10° SW 17:55:30 19° W 17:58:28 10° NW visible
28 Nov ? 05:40:09 10° N 05:44:30 83° WNW 05:48:51 10° SSW visible
28 Nov ? 18:07:51 10° WSW 18:09:40 13° W 18:11:29 10° WNW visible
29 Nov ? 04:22:03 10° E 04:22:21 10° E 04:22:38 10° E visible
29 Nov ? 05:54:17 10° N 05:58:32 55° WNW 06:02:47 10° SSW visible
30 Nov ? 04:33:57 10° ENE 04:36:31 15° E 04:39:05 10° SE visible
30 Nov ? 06:08:31 10° N 06:12:32 37° WNW 06:16:32 10° SW visible
01 Dec ? 04:47:14 10° NE 04:50:40 22° E 04:54:04 10° SSE visible
01 Dec ? 17:11:31 10° S 17:15:38 56° W 17:19:49 10° NNW visible
02 Dec ? 05:00:51 10° NNE 05:04:46 32° E 05:08:41 10° SSE visible
02 Dec ? 17:25:49 10° SSW 17:29:42 37° W 17:33:39 10° NNW visible
